Weather observations for the past three days for
Longville, Longville Municipal Airport
Metric (Imperial)
Date Time (cdt) Wind (kph) Vis. (km) Weather Sky Cond. Temperature (ºC) Relative Humidity Wind Chill (°C) Heat Index (°C) Pressure Precipitation (cm)
Air Dwpt 6 hour altimeter (cm) sea level (mb) 1 hr 3 hr 6 hr
Max. Min.
04 07:33 W 20 16.09 Overcast BKN028 OVC042 8 3 71% 5 74.65 0.0
04 07:13 W 26 G 41 16.09 Mostly Cloudy BKN030 BKN037 BKN043 8 3 71% 5 74.63 0.0
04 06:53 W 20 G 37 16.09 Partly Cloudy SCT030 8 3 71% 5 74.6 0.0
04 06:33 W 26 G 56 16.09 Partly Cloudy SCT033 SCT080 8 2 66% 5 74.57 0.0
04 06:13 W 22 G 44 16.09 Overcast SCT035 OVC095 9 2 62% 6 74.57 0.0
04 05:53 W 26 G 39 16.09 Overcast SCT065 OVC085 9 2 62% 6 74.5 0.0
04 05:33 W 24 G 39 16.09 Overcast OVC065 9 3 66% 6 74.5 0.0
04 04:53 W 17 G 33 16.09 Overcast OVC049 10 3 62% 8 74.55 0.0
04 04:33 NW 19 G 31 16.09 Mostly Cloudy SCT044 BKN049 10 3 62% 8 74.55 0.0
04 04:13 NW 20 G 33 16.09 Partly Cloudy SCT045 11 3 58% 74.55 0.0
04 03:53 NW 19 G 41 16.09 Fair CLR 12 4 58% 74.5 0.0
04 03:33 W 22 G 31 16.09 Fair CLR 15 -1 34% 74.42 0.0
04 03:13 SW 19 16.09 Fair CLR 15 -1 34% 74.4 0.0
04 02:53 SW 17 16.09 Partly Cloudy SCT085 15 0 36% 74.4 0.0
04 02:33 SW 19 G 30 16.09 Mostly Cloudy SCT065 SCT085 BKN110 16 -1 31% 74.42 0.0
04 02:13 SW 22 G 31 16.09 Overcast OVC100 16 -2 29% 74.5 0.0
04 01:53 SW 15 G 31 16.09 Mostly Cloudy BKN110 16 -2 29% 74.47 0.0
04 01:33 SW 19 G 33 16.09 Mostly Cloudy BKN110 16 -2 29% 74.5 0.0
04 01:13 SW 20 G 37 16.09 Fair CLR 16 -2 29% 74.52 0.0
04 00:53 SW 17 G 28 16.09 Fair CLR 16 -2 29% 74.57 0.0
04 00:33 S 19 G 35 16.09 Fair CLR 16 -2 29% 74.57 0.0
04 00:13 SW 17 G 31 16.09 Fair CLR 15 -1 34% 74.63 0.0
03 23:53 SW 17 G 30 16.09 Fair CLR 16 -1 31% 74.65 0.0
03 23:33 S 19 G 28 16.09 Fair CLR 15 -1 34% 74.68 0.0
03 23:13 S 19 G 26 16.09 Fair CLR 15 -1 34% 74.73 0.0
03 22:53 S 17 G 26 16.09 Fair CLR 15 -2 31% 74.75 0.0
03 22:33 S 17 G 31 16.09 Fair CLR 16 -2 29% 74.78 0.0
03 22:13 S 17 G 28 16.09 Fair CLR 16 -2 29% 74.83 0.0
03 21:53 S 13 16.09 Fair CLR 16 -2 29% 74.88 0.0
03 21:33 S 13 16.09 Fair CLR 16 -2 29% 74.9 0.0
03 21:13 S 13 16.09 Fair CLR 16 -2 29% 74.93 0.0
03 20:53 S 9 16.09 Fair CLR 16 -2 29% 74.96 0.0
03 20:33 S 11 16.09 Fair CLR 16 -2 29% 74.98 0.0
03 20:13 S 9 16.09 Fair CLR 17 -2 27% 75.03 0.0
03 19:53 SW 13 16.09 Fair CLR 17 -2 27% 75.06 0.0
03 19:33 SW 13 16.09 Fair CLR 18 -2 26% 75.08 0.0
03 19:13 SW 15 16.09 Partly Cloudy SCT100 18 -3 24% 75.11 0.0
03 18:53 SW 13 16.09 Partly Cloudy SCT100 18 -3 24% 75.13 0.0
03 18:33 W 17 16.09 Fair CLR 19 -3 22% 75.16 0.0
03 18:13 SW 13 16.09 Fair CLR 19 -4 21% 75.18 0.0
03 17:53 W 15 G 30 16.09 Fair CLR 19 -3 22% 75.21 0.0
03 17:33 SW 19 G 26 16.09 Fair CLR 19 -4 21% 75.21 0.0
03 17:13 SW 13 G 28 16.09 Fair CLR 19 -4 21% 75.23 0.0
03 16:53 W 17 G 31 16.09 Fair CLR 19 -4 21% 75.26 0.0
03 16:33 SW 20 G 33 16.09 Fair CLR 19 -4 21% 75.26 0.0
03 16:13 W 13 16.09 Fair CLR 20 -4 20% 75.29 0.0
03 15:53 SW 13 16.09 Fair CLR 19 -4 21% 75.31 0.0
03 15:33 W 15 16.09 Fair CLR 20 -3 21% 75.34 0.0
03 15:13 NW 13 G 26 16.09 Fair CLR 19 -4 21% 75.36 0.0
03 14:53 W 6 G 26 16.09 Fair CLR 18 -4 22% 75.39 0.0
03 14:33 NW 11 16.09 Fair CLR 18 -4 22% 75.41 0.0
03 14:13 NW 13 16.09 Fair CLR 17 -5 22% 75.44 0.0
03 13:53 W 6 G 33 16.09 Fair CLR 16 -4 25% 75.46 0.0
03 13:33 NW 13 16.09 Fair CLR 16 -4 25% 75.51 0.0
03 13:13 NW 15 G 30 16.09 Fair CLR 16 -4 25% 75.54 0.0
03 12:53 W 15 G 26 16.09 Fair CLR 16 -4 25% 75.57 0.0
03 12:33 NW 17 G 28 16.09 Fair CLR 15 -5 25% 75.57 0.0
03 12:13 NW 17 16.09 Fair CLR 15 -4 27% 75.62 0.0
03 11:53 W 20 G 33 16.09 Fair CLR 14 -5 27% 75.62 0.0
03 11:33 NW 19 G 33 16.09 Fair CLR 14 -6 25% 75.62 0.0
03 11:13 NW 17 G 30 16.09 Fair CLR 14 -5 27% 75.62 0.0
03 10:53 NW 15 G 26 16.09 Fair CLR 13 -6 26% 75.62 0.0
03 10:33 N 13 16.09 Fair CLR 13 -5 28% 75.62 0.0
03 10:13 NW 17 G 26 16.09 Fair CLR 12 -4 33% 75.62 0.0
03 09:53 NW 11 16.09 Fair CLR 12 -4 33% 75.62 0.0
03 09:33 W 17 16.09 Fair CLR 11 -3 38% 75.62 0.0
03 09:13 N 7 16.09 Fair CLR 11 -3 38% 75.59 0.0
03 08:53 NW 17 G 28 16.09 Fair CLR 11 -3 38% 75.62 0.0
03 08:33 NW 15 16.09 Fair CLR 10 -1 47% 8 75.59 0.0
03 08:13 NW 13 16.09 Fair CLR 9 -1 50% 7 75.59 0.0
03 07:53 NW 9 16.09 Fair CLR 8 0 57% 7 75.57 0.0
03 07:33 NW 9 16.09 Fair CLR 8 2 66% 7 75.57 0.0
03 07:13 NW 13 16.09 Fair CLR 8 3 71% 6 75.54 0.0
03 06:53 NW 11 16.09 Fair CLR 7 3 76% 5 75.54 0.0
03 06:33 NW 9 16.09 Fair CLR 7 3 76% 5 75.51 0.0
03 06:13 NW 11 16.09 Fair CLR 7 3 76% 5 75.49 0.0
03 05:53 NW 11 16.09 Fair CLR 7 4 81% 5 75.46 0.0
03 05:33 NW 11 16.09 Fair CLR 7 4 81% 5 75.46 0.0
03 05:13 W 7 16.09 Fair CLR 4 3 93% 2 75.46 0.0
03 04:53 Calm 16.09 Fair CLR 4 3 93% 75.46 0.0
03 04:33 W 6 16.09 Fair CLR 4 2 87% 75.46 0.0
03 04:13 NW 6 16.09 Fair CLR 4 2 87% 75.46 0.0
03 03:53 Calm 16.09 Fair CLR 4 2 87% 75.44 0.0
03 03:33 Calm 16.09 Fair CLR 4 3 93% 75.44 0.0
03 03:13 Calm 16.09 Fair CLR 6 3 81% 75.44 0.0
03 02:53 N 6 16.09 Fair CLR 7 3 76% 75.44 0.0
03 02:33 N 6 16.09 Fair CLR 7 2 71% 75.44 0.0
03 02:13 N 6 16.09 Fair CLR 6 2 76% 75.44 0.0
03 01:53 Calm 16.09 Fair CLR 7 3 76% 75.44 0.0
03 01:33 Calm 16.09 Fair CLR 7 2 71% 75.44 0.0
03 01:13 Calm 16.09 Fair CLR 6 2 76% 75.44 0.0
03 00:53 Calm 16.09 NULL NULL 8 2 66% 75.44 0.0
03 00:33 Calm 16.09 NULL NULL 9 2 62% 75.44 0.0
03 00:13 Calm 16.09 Overcast OVC100 11 1 50% 75.44 0.0
02 23:53 E 6 16.09 NULL NULL 12 1 47% 75.44 0.0
02 23:33 Calm 16.09 Overcast OVC100 12 0 44% 75.44 0.0
02 23:13 SE 6 16.09 NULL NULL 11 1 50% 75.46 0.0
02 22:53 Calm 16.09 NULL NULL 11 1 50% 75.49 0.0
02 22:33 Calm 16.09 Mostly Cloudy BKN100 12 1 47% 75.51 0.0
02 22:13 Calm 16.09 NULL NULL 12 1 47% 75.51 0.0
02 21:53 SE 6 16.09 Overcast SCT080 OVC090 11 2 54% 75.54 0.0
02 21:33 Calm 16.09 NULL NULL 12 1 47% 75.54 0.0
02 21:13 Calm 16.09 NULL NULL 11 3 58% 75.54 0.0
02 20:53 Calm 16.09 NULL NULL 11 2 54% 75.54 0.0
02 20:33 E 6 16.09 NULL NULL 12 1 47% 75.54 0.0
02 20:13 Calm 16.09 Mostly Cloudy BKN090 13 1 44% 75.54 0.0
02 19:53 S 6 16.09 Mostly Cloudy SCT060 BKN090 14 -1 36% 75.57 0.0
02 19:33 SW 9 G 30 16.09 Overcast SCT060 BKN070 OVC090 15 -1 34% 75.62 0.0
02 19:13 W 11 16.09 Overcast OVC090 15 0 36% 75.62 0.0
02 18:33 SE 7 16.09 Partly Cloudy SCT065 SCT075 16 1 36% 75.64 0.0
02 18:13 Calm 16.09 Light Rain CLR 16 1 36% 75.64 0.0
02 17:53 SW 6 16.09 Fair CLR 16 0 34% 75.67 0.0
02 17:33 W 19 G 33 16.09 Partly Cloudy SCT075 SCT095 17 -1 30% 75.69 0.0
02 17:13 W 28 G 41 16.09 Partly Cloudy SCT085 18 -2 26% 75.67 0.0
02 16:53 SW 17 G 37 16.09 Mostly Cloudy BKN085 17 -1 30% 75.67 0.0
02 16:33 SW 13 16.09 Partly Cloudy SCT085 18 -2 26% 75.67 0.0
02 16:13 SW 15 16.09 Fair CLR 18 -1 28% 75.69 0.0
02 15:53 SW 19 16.09 Partly Cloudy SCT100 18 -2 26% 75.72 0.0
02 15:33 SW 15 16.09 Partly Cloudy SCT100 17 -2 27% 75.74 0.0
02 15:13 SW 15 16.09 Fair CLR 18 -1 28% 75.74 0.0
02 14:53 SW 19 G 31 16.09 Partly Cloudy SCT110 17 -2 27% 75.79 0.0
02 14:33 SW 11 16.09 Partly Cloudy SCT110 18 -2 26% 75.79 0.0
02 14:13 S 13 G 26 16.09 Partly Cloudy SCT110 17 -2 27% 75.79 0.0
02 13:53 S 15 16.09 Fair CLR 18 -2 26% 75.82 0.0
02 13:33 S 15 G 26 16.09 Fair CLR 18 -2 26% 75.84 0.0
02 13:13 S 15 16.09 Fair CLR 17 -3 25% 75.87 0.0
02 12:53 S 19 G 26 16.09 Fair CLR 16 -3 27% 75.9 0.0
02 12:33 SW 17 16.09 Partly Cloudy SCT110 16 -3 27% 75.95 0.0
02 12:13 S 7 16.09 Partly Cloudy SCT100 15 -3 29% 75.95 0.0
02 11:53 SW 19 G 26 16.09 Partly Cloudy SCT100 16 -3 27% 75.97 0.0
02 11:33 S 13 G 26 16.09 Partly Cloudy SCT110 14 -4 29% 76 0.0
02 11:13 SW 15 16.09 Partly Cloudy SCT110 14 -4 29% 76.02 0.0
02 10:53 S 17 16.09 Partly Cloudy SCT100 13 -4 31% 76.05 0.0
02 10:33 SW 11 G 26 16.09 Fair CLR 12 -4 33% 76.07 0.0
02 10:13 SW 15 16.09 Fair CLR 12 -4 33% 76.1 0.0
02 09:53 S 11 16.09 Fair CLR 11 -4 35% 76.12 0.0
02 09:33 S 11 16.09 Fair CLR 10 -4 37% 9 76.15 0.0
02 09:13 S 7 16.09 Partly Cloudy SCT080 9 -3 43% 8 76.17 0.0
02 08:53 Calm 16.09 Partly Cloudy SCT080 7 -3 49% 76.17 0.0
02 08:33 SW 6 16.09 Mostly Cloudy BKN080 7 -2 53% 76.2 0.0
02 08:13 Calm 16.09 NULL NULL 4 1 81% 76.2 0.0
02 07:53 Calm 16.09 NULL NULL 2 1 93% 76.23 0.0
02 07:33 Calm 16.09 Partly Cloudy SCT080 1 -1 87% 76.23 0.0
02 07:13 Calm 16.09 Fair CLR -2 -2 100% 76.25 0.0
02 06:53 Calm 16.09 Fair CLR -3 -3 100% 76.25 0.0
02 06:33 Calm 16.09 Fair CLR -4 -4 100% 76.28 0.0
02 06:13 Calm 16.09 Fair CLR -4 -4 100% 76.28 0.0
02 05:53 Calm 16.09 Fair CLR -4 -4 100% 76.28 0.0
02 05:33 Calm 16.09 Fair CLR -4 -4 100% 76.3 0.0
02 05:13 Calm 16.09 Fair CLR -3 -4 93% 76.3 0.0
02 04:53 Calm 16.09 Fair CLR -3 -4 93% 76.3 0.0
02 04:33 Calm 16.09 Fair CLR -3 -4 93% 76.3 0.0
02 04:13 Calm 16.09 Fair CLR -3 -4 93% 76.33 0.0
02 03:53 Calm 16.09 Fair CLR -3 -4 93% 76.33 0.0
02 03:33 Calm 16.09 Fair CLR -3 -4 93% 76.33 0.0
02 03:13 Calm 16.09 Fair CLR -3 -4 93% 76.33 0.0
02 02:53 Calm 16.09 Fair CLR -3 -3 100% 76.33 0.0
02 02:33 Calm 16.09 Fair CLR -3 -3 100% 76.33 0.0
02 02:13 Calm 16.09 Fair CLR -2 -3 93% 76.33 0.0
02 01:53 Calm 16.09 Fair CLR -2 -3 93% 76.33 0.0
02 01:33 Calm 16.09 Fair CLR -2 -3 93% 76.33 0.0
02 01:13 Calm 16.09 Fair CLR -2 -3 93% 76.35 0.0
02 00:53 Calm 16.09 Fair CLR -2 -3 93% 76.35 0.0
02 00:33 Calm 16.09 Fair CLR -1 -3 86% 76.35 0.0
02 00:13 Calm 16.09 Fair CLR -1 -4 80% 76.35 0.0
01 23:53 Calm 16.09 Fair CLR -1 -3 86% 76.35 0.0
01 23:33 Calm 16.09 Fair CLR 0 -3 80% 76.35 0.0
01 23:13 Calm 16.09 Fair CLR 1 -3 75% 76.38 0.0
01 22:53 Calm 16.09 Fair CLR 1 -3 75% 76.38 0.0
01 22:33 Calm 16.09 Fair CLR 1 -5 65% 76.38 0.0
01 22:13 Calm 16.09 Fair CLR 2 -4 65% 76.38 0.0
01 21:53 Calm 16.09 Fair CLR 2 -6 56% 76.38 0.0
01 21:33 Calm 16.09 Fair CLR 3 -4 60% 76.38 0.0
01 21:13 Calm 16.09 Fair CLR 4 -6 48% 76.35 0.0
01 20:53 Calm 16.09 Fair CLR 6 -5 46% 76.35 0.0
01 20:33 NW 6 16.09 Fair CLR 8 -8 32% 76.35 0.0
01 20:13 W 9 16.09 Fair CLR 9 -8 29% 8 76.35 0.0
01 19:53 NW 9 16.09 Fair CLR 9 -9 27% 8 76.35 0.0
01 19:33 NW 11 16.09 Fair CLR 10 -10 24% 9 76.35 0.0
01 19:13 NW 13 16.09 Fair CLR 10 -10 24% 8 76.33 0.0
01 18:53 W 11 16.09 Fair CLR 11 -9 24% 76.33 0.0
01 18:33 W 13 16.09 Fair CLR 11 -9 24% 76.33 0.0
01 18:13 W 17 16.09 Fair CLR 11 -9 24% 76.33 0.0
01 17:53 W 22 16.09 Fair CLR 11 -9 24% 76.35 0.0
01 17:33 W 22 G 28 16.09 Fair CLR 11 -9 24% 76.35 0.0
01 17:13 NW 9 G 26 16.09 Fair CLR 11 -9 24% 76.35 0.0
01 16:53 W 19 G 26 16.09 Fair CLR 11 -9 24% 76.35 0.0
01 16:33 W 19 G 28 16.09 Fair CLR 11 -8 26% 76.35 0.0
01 16:13 NW 19 G 28 16.09 Fair CLR 11 -8 26% 76.35 0.0
01 15:53 W 20 G 26 16.09 Fair CLR 11 -8 26% 76.38 0.0
01 15:33 W 15 G 28 16.09 Fair CLR 11 -8 26% 76.38 0.0
01 15:13 W 17 16.09 Fair CLR 11 -8 26% 76.38 0.0
01 14:53 W 19 G 31 16.09 Fair CLR 11 -8 26% 76.38 0.0
01 14:33 W 20 G 28 16.09 Fair CLR 11 -8 26% 76.38 0.0
01 14:13 W 19 G 26 16.09 Fair CLR 11 -8 26% 76.4 0.0
01 13:53 W 19 G 26 16.09 Fair CLR 11 -8 26% 76.4 0.0
01 13:33 W 20 G 28 16.09 Fair CLR 10 -8 28% 8 76.4 0.0
01 13:13 W 22 G 31 16.09 Fair CLR 10 -8 28% 7 76.4 0.0
01 12:53 W 15 G 31 16.09 Fair CLR 9 -8 29% 7 76.43 0.0
01 12:33 W 13 G 28 16.09 Fair CLR 9 -7 32% 7 76.43 0.0
01 12:13 W 20 G 31 16.09 Fair CLR 9 -8 29% 6 76.43 0.0
01 11:53 W 15 G 28 16.09 Partly Cloudy SCT060 8 -7 34% 6 76.45 0.0
01 11:33 NW 13 G 26 16.09 Partly Cloudy SCT060 8 -7 34% 6 76.45 0.0
01 11:13 W 17 G 26 16.09 Partly Cloudy SCT060 7 -7 37% 4 76.45 0.0
01 10:53 NW 9 G 28 16.09 Fair CLR 8 -7 34% 7 76.45 0.0
01 10:33 NW 15 G 26 16.09 Fair CLR 7 -7 37% 5 76.45 0.0
01 10:13 NW 7 16.09 Fair CLR 7 -7 37% 6 76.45 0.0
01 09:53 W 15 16.09 Fair CLR 7 -6 39% 5 76.45 0.0
01 09:33 W 17 16.09 Fair CLR 6 -5 46% 3 76.45 0.0
01 09:13 NW 13 16.09 Fair CLR 6 -5 46% 4 76.48 0.0
01 08:53 NW 6 16.09 Fair CLR 6 -4 49% 76.45 0.0
01 08:33 NW 7 16.09 Fair CLR 5 -3 57% 4 76.45 0.0
01 08:13 W 9 16.09 Fair CLR 4 -3 61% 2 76.45 0.0
01 07:53 W 7 16.09 Fair CLR 3 -3 65% 1 76.43 0.0
Date Time (cdt) Wind (kph) Vis. (km) Weather Sky Cond. Air Dwpt Max. Min. Relative Humidity Wind Chill (°C) Heat Index (°C) altimeter (cm) sea level (mb) 1 hr 3 hr 6 hr
6 hour
Temperature (ºC) Pressure Precipitation (cm)